{"data":{"norad_id":56331,"intl_designator":"2023-058Q","name":"STARLINK-5991","alt_names":[],"object_type":"PAYLOAD","status":"ACTIVE","operator":null,"country":"US","launch_date":"2023-04-27","launch_site_code":"AFWTR","launch_vehicle":null,"mission":null,"orbit_class":"UNKNOWN","rcs_meters":null,"size_class":null,"mass_kg":null,"dimensions":null,"purposes":["comms"],"wikipedia_slug":null,"has_3d_model":false,"image_url":null,"decayed_at":null,"tle_current":{"epoch":"2026-05-25T00:05:30.090336Z","epoch_age_seconds":77763,"freshness":"FRESH","line1":"1 56331U 23058Q   26145.00382049 -.00003227  00000+0 -21961-3 0  9997","line2":"2 56331  97.4480 144.9124 0002237 102.0558 258.0920 15.05662947169605","mean_motion":15.05662947,"eccentricity":0.0002237,"inclination_deg":97.448,"raan_deg":144.9124,"arg_perigee_deg":102.0558,"mean_anomaly_deg":258.092,"bstar":-0.00021961,"rev_number":16960,"period_min":95.638934521778,"perigee_km":547.92173467659,"apogee_km":551.02114669295,"semimajor_km":6927.6084406848,"source":"CELESTRAK","updated_at":"2026-05-25T13:38:18.002439Z"}}}